This is the latest recevied weather packets stored in our database for station/object KQ4JKJ. If no packets are shown the sender has not sent any weather packets the latest 10 day(s).
| Time | Temp. | Humidity | Pressure | Rain* | Wind** | Luminosity | Snow |
|---|---|---|---|---|---|---|---|
| 1777852957 | 22.22° C | 77% | 1010.3 hPa | 0 mm | - | 1 W/m² | - |
| 1777852655 | 22.22° C | 77% | 1010.2 hPa | 0 mm | - | 1 W/m² | - |
| 1777852352 | 22.22° C | 77% | 1010.3 hPa | 0 mm | - | 2 W/m² | - |
| 1777852050 | 22.22° C | 77% | 1010.1 hPa | 0 mm | - | 2 W/m² | - |
| 1777851748 | 22.22° C | 77% | 1010.1 hPa | 0 mm | - | 3 W/m² | - |
| 1777851444 | 22.78° C | 77% | 1010.2 hPa | 0 mm | - | 3 W/m² | - |
| 1777851140 | 22.22° C | 76% | 1010.2 hPa | 0 mm | - | 3 W/m² | - |
| 1777850837 | 22.22° C | 77% | 1010.3 hPa | 0 mm | - | 3 W/m² | - |
| 1777850534 | 22.22° C | 77% | 1010.4 hPa | 0 mm | - | 4 W/m² | - |
| 1777850233 | 22.22° C | 77% | 1010.3 hPa | 0 mm | - | 4 W/m² | - |
| 1777849928 | 22.78° C | 77% | 1010.1 hPa | 0 mm | - | 6 W/m² | - |
| 1777849625 | 22.22° C | 78% | 1010.1 hPa | 0 mm | - | 6 W/m² | - |
| 1777849322 | 22.22° C | 77% | 1010.2 hPa | 0 mm | - | 8 W/m² | - |
| 1777849019 | 22.22° C | 77% | 1010.1 hPa | 0 mm | - | 11 W/m² | - |
| 1777848714 | 22.22° C | 78% | 1010.2 hPa | 0 mm | - | 10 W/m² | - |
| 1777848411 | 22.22° C | 78% | 1010.1 hPa | 0 mm | - | 10 W/m² | - |
| 1777847351 | 22.78° C | 78% | 1010.2 hPa | 0 mm | - | 19 W/m² | - |
| 1777847050 | 22.78° C | 78% | 1010.2 hPa | 0 mm | - | 19 W/m² | - |
| 1777846748 | 22.78° C | 78% | 1010.3 hPa | 0 mm | - | 24 W/m² | - |
| 1777846446 | 22.78° C | 78% | 1010.1 hPa | 0 mm | - | 26 W/m² | - |
| 1777846142 | 22.78° C | 78% | 1010.2 hPa | 0 mm | - | 34 W/m² | - |
| 1777845839 | 22.78° C | 78% | 1010.1 hPa | 0 mm | - | 26 W/m² | - |
| 1777845536 | 22.78° C | 78% | 1010.2 hPa | 0 mm | - | 23 W/m² | - |
| 1777845233 | 22.78° C | 77% | 1010.2 hPa | 0 mm | - | 20 W/m² | - |
| 1777844930 | 22.78° C | 77% | 1010 hPa | 0 mm | - | 41 W/m² | - |
* Rain latest hour (hover to see other rain measurements)
** Current wind speed in m/s (hover to see current wind gust speed)